S-NET D

Last updated on Fri Dec 29 2023 00:03:02 GMT+0000 (Coordinated Universal Time)

1 43186U 18014G 23362.26854970 .00005445 00000+0 41547-3 0 9994 2 43186 97.6070 262.2736 0010026 223.5845 136.4588 15.02371244322673
UTC large
Height (km)
Speed (km/s)
/
Latitude / Longitude
Inclination (degrees)
Orbital Period (minutes)
Azimuth
Elevation
Range (km)
Doppler Factor

Next 0 passes for location: London (51.5072 / 0.1276)

Sorry there are no passes over London.